Wenatchee, WA
on Tuesday, February 12, 2013

Tuesday
Previous Day Next Day
Daily Summary
 ActualAverageRecord
Temperature
Mean Temperature °F 31°F  
Max Temperature 39°F 38°F 59°F (2011)
Min Temperature 31°F 23°F 16°F (1989)
Degree Days
Heating Degree Days 30 34  
Month to date heating degree days 408 418  
Since 1 July heating degree days 4351 4675  
Cooling Degree Days 0 0  
Month to date cooling degree days 0 0  
Year to date cooling degree days 0 0  
Moisture
Dew Point 29°F   
Average Humidity 78    
Maximum Humidity 89    
Minimum Humidity 60    
Precipitation
Precipitation 0.00 in 0.06 in 0.33 in (1998)
Month to date precipitation 0.03 0.64  
Year to date precipitation 1.49 2.51  
Snow
Snow 0.00 in 0.20 in in ()
Month to date snowfall 0.1 3.2  
Since 1 July snowfall 43.9 43.6  
Snow Depth 2.00 in   
Wind
Wind Speed 2 mph   
Max Wind Speed 9 mph   
Max Gust Speed mph   
Visibility 9 miles   
Events     

Key: T is trace of precipitation, MM is missing value
Source: NWS Daily Summary
Time(PST)TemperatureDew PointHumidity Pressure Visibility Wind DirectionWind SpeedGust SpeedPrecipitationEvents Conditions
12:55 AM 30.9°F 26.1°F 82% 30.27 in 9.0 miles Calm Calm - N/A   Clear
1:55 AM 30.0°F 26.1°F 85% 30.27 in 10.0 miles ENE 3.5 mph - N/A   Scattered Clouds
2:55 AM 30.9°F 27.0°F 85% 30.26 in 8.0 miles East 4.6 mph - N/A   Clear
3:55 AM 30.9°F 27.0°F 85% 30.27 in 8.0 miles Calm Calm - N/A   Clear
4:55 AM 30.9°F 27.0°F 85% 30.28 in 8.0 miles Calm Calm - N/A   Partly Cloudy
5:55 AM 32.0°F 28.0°F 85% 30.29 in 10.0 miles Calm Calm - N/A   Partly Cloudy
6:55 AM 32.0°F 28.0°F 85% 30.30 in 10.0 miles Calm Calm - N/A   Clear
7:55 AM 30.9°F 28.0°F 89% 30.31 in 7.0 miles Calm Calm - N/A   Clear
8:55 AM 32.0°F 28.0°F 85% 30.33 in 7.0 miles Calm Calm - N/A   Clear
9:55 AM 32.0°F 28.0°F 85% 30.32 in 6.0 miles Calm Calm - N/A   Clear
10:55 AM 33.1°F 28.9°F 85% 30.32 in 5.0 miles Calm Calm - N/A   Clear
11:55 AM 35.1°F 28.9°F 78% 30.32 in 9.0 miles Calm Calm - N/A   Clear
12:55 PM 37.0°F 30.0°F 76% 30.29 in 10.0 miles ESE 5.8 mph - N/A   Partly Cloudy
1:55 PM 39.9°F 30.9°F 70% 30.27 in 10.0 miles North - - N/A   Partly Cloudy
2:55 PM 42.1°F 30.9°F 65% 30.25 in 10.0 miles ESE 9.2 mph - N/A   Scattered Clouds
3:55 PM 44.1°F 30.9°F 60% 30.23 in 10.0 miles East 9.2 mph - N/A   Mostly Cloudy
4:55 PM 42.1°F 30.9°F 65% 30.22 in 10.0 miles East 5.8 mph - N/A   Clear
5:55 PM 39.0°F 30.9°F 73% 30.22 in 10.0 miles East 6.9 mph - N/A   Clear
6:55 PM 37.0°F 30.0°F 76% 30.20 in 10.0 miles East 5.8 mph - N/A   Partly Cloudy
7:55 PM 39.0°F 30.0°F 70% 30.19 in 10.0 miles SE 3.5 mph - N/A   Overcast
8:55 PM 37.9°F 30.0°F 73% 30.18 in 10.0 miles NE 3.5 mph - N/A   Mostly Cloudy
9:55 PM 37.0°F 30.0°F 76% 30.17 in 10.0 miles East 5.8 mph - N/A   Mostly Cloudy
10:55 PM 35.1°F 28.9°F 78% 30.17 in 10.0 miles NE 4.6 mph - N/A   Clear
11:55 PM 36.0°F 28.9°F 76% 30.16 in 10.0 miles Variable 5.8 mph - N/A   Clear
Moon Phase
Feb. 12 Feb. 17 Feb. 25 Mar. 04 Mar. 11
Sunrise:07:10 AM (PST) Moon Rise:07:55 AM (PST)2/12
Sunset:05:20 PM (PST) Moon Set:08:44 PM (PST)2/12

Copyright © 2014 The Weather Underground, Inc.